Terug naar catalogus

FENGYUN 1C DEB

ActiefSSO
NORAD 31056·DEBRIS·🇨🇳 China

Gelanceerd May 10, 1999 vanaf Taiyuan Satellite Launch Center

Loading…

Volgende Passages (komende 24 uur)

TLE

VersSource: Space-Track

Epoch: Sep 14, 2026, 10:26 UTC

1 31056U 99025BFA 26257.43522190  .00000358  00000-0  20817-3 0  9995
2 31056  98.6958 237.3838 0024473 273.8493 238.6543 14.14631044  7110

Volg FENGYUN 1C DEB in realtime met AllMySat

Download on the App Store